K0CVS Weather Reports


Display with metric or nautical units.
time (UTC)temp
F
wind
direction
speed
MPH
gust
MPH
rain 1hr
in
rain 24hr
in
rain mn
in
humidity
%
barometer
mb
20260505114039 49 266 0.0 1.0 0.00 0.07 0.07 81 1009.7
20260505113535 49 193 1.0 1.0 0.00 0.07 0.07 77 1009.7
20260505113032 49 200 0.0 0.0 0.00 0.07 0.07 79 1009.7
20260505112528 50 12 0.0 2.0 0.00 0.07 0.07 76 1009.7
20260505112026 50 265 0.0 1.0 0.00 0.07 0.07 74 1009.5
20260505111520 50 294 0.0 1.0 0.00 0.07 0.07 73 1009.6
20260505111016 50 357 3.0 3.0 0.00 0.07 0.07 74 1009.7
20260505110513 50 222 0.0 1.0 0.05 0.07 0.07 74 1009.4
20260505101945 50 265 1.0 1.0 0.00 0.06 0.06 80 1009.5
20260505101443 50 40 1.0 2.0 0.00 0.06 0.06 80 1009.3
20260505100940 49 223 0.0 1.0 0.00 0.06 0.06 81 1009.5
20260505100437 49 349 1.0 1.0 0.00 0.06 0.06 82 1009.4
20260505095933 49 275 0.0 0.0 0.00 0.06 0.06 83 1009.6
20260505095430 49 248 0.0 0.0 0.00 0.06 0.06 82 1010.1
20260505094926 49 205 0.0 0.0 0.00 0.06 0.06 80 1009.9
20260505094423 49 221 0.0 0.0 0.07 0.06 0.06 80 1009.6
20260505093919 49 235 0.0 1.0 0.07 0.06 0.06 81 1009.5
20260505093416 49 7 1.0 2.0 0.00 0.05 0.05 82 1009.5
20260505092913 49 268 0.0 0.0 0.00 0.05 0.05 81 1009.4
20260505092411 49 219 0.0 0.0 0.00 0.05 0.05 81 1009.0
20260505091908 49 314 0.0 1.0 0.00 0.05 0.05 80 1009.1
20260505091406 49 276 0.0 2.0 0.00 0.05 0.05 80 1009.0
20260505090904 49 235 1.0 2.0 0.00 0.05 0.05 79 1008.6
20260505090403 49 289 2.0 3.0 0.00 0.05 0.05 79 1008.1
20260505085859 49 212 0.0 2.0 0.00 0.05 0.05 79 1008.0
20260505085357 49 228 2.0 6.0 0.00 0.05 0.05 79 1007.9
20260505084855 49 176 2.0 2.0 0.00 0.05 0.05 80 1007.6
20260505084353 49 156 0.0 3.0 0.00 0.05 0.05 82 1007.7
20260505083850 49 211 2.0 3.0 0.00 0.05 0.05 83 1007.6
20260505083347 49 224 0.0 4.0 0.00 0.05 0.05 84 1007.7
20260505082843 49 214 0.0 2.0 0.05 0.05 0.05 86 1007.4
20260505082339 49 128 1.0 2.0 0.00 0.04 0.04 87 1007.7
20260505081836 49 321 1.0 3.0 0.00 0.04 0.04 87 1007.4
20260505081333 49 198 2.0 2.0 0.00 0.04 0.04 87 1006.1
20260505080830 50 143 2.0 3.0 0.00 0.04 0.04 87 1007.5
20260505080326 50 211 0.0 0.0 0.00 0.04 0.04 85 1008.6
20260505075821 50 207 0.0 1.0 0.00 0.04 0.04 83 1008.8
20260505075319 50 219 0.0 0.0 0.00 0.04 0.04 82 1008.8
20260505074816 51 234 0.0 2.0 0.00 0.04 0.04 81 1009.1
20260505074313 51 263 0.0 2.0 0.00 0.04 0.04 81 1009.3
20260505073810 52 277 0.0 1.0 0.00 0.04 0.04 80 1009.5
20260505073308 52 231 0.0 0.0 0.00 0.04 0.04 78 1009.4
20260505072805 53 225 0.0 1.0 0.07 0.04 0.04 77 1010.1
20260505072301 53 209 0.0 0.0 0.07 0.04 0.04 75 1010.1
20260505071757 54 238 0.0 2.0 0.00 0.03 0.03 70 1009.6
20260505071253 54 264 0.0 1.0 0.00 0.03 0.03 70 1008.9
20260505070751 55 280 0.0 2.0 0.00 0.03 0.03 67 1008.8
20260505070247 55 224 0.0 0.0 0.00 0.03 0.03 66 1008.7
20260505065743 56 281 0.0 2.0 0.00 0.03 0.03 63 1008.3
20260505065240 57 252 1.0 2.0 0.00 0.03 0.03 62 1007.8
20260505064737 57 230 0.0 2.0 0.00 0.03 0.03 60 1007.8
20260505064235 57 253 0.0 2.0 0.00 0.03 0.03 58 1007.6
20260505063732 57 161 1.0 7.0 0.00 0.03 0.03 55 1007.4
20260505063228 58 231 0.0 3.0 0.00 0.03 0.03 59 1007.2
20260505062724 58 233 2.0 6.0 0.05 0.03 0.03 59 1006.5
20260505062223 58 206 1.0 4.0 0.05 0.03 0.03 63 1007.4
20260505061719 58 324 1.0 3.0 0.00 0.02 0.02 66 1007.1
20260505061217 58 152 1.0 4.0 0.00 0.02 0.02 68 1006.8
20260505060714 58 25 3.0 3.0 0.00 0.02 0.02 72 1006.1
20260505060211 58 261 0.0 2.0 0.00 0.02 0.02 70 1006.2
20260505055706 58 280 0.0 4.0 0.00 0.02 0.02 71 1005.9
20260505055203 58 8 1.0 2.0 0.00 0.02 0.02 77 1005.9
20260505054700 58 274 0.0 2.0 0.07 0.02 0.02 79 1005.7
20260505054158 57 229 0.0 0.0 0.07 0.02 0.02 82 1005.4
20260505053656 57 208 0.0 0.0 0.00 0.01 0.01 84 1005.5
20260505053152 57 208 1.0 1.0 0.00 0.01 0.01 85 1005.6
20260505052649 57 240 0.0 0.0 0.00 0.01 0.01 84 1005.6
20260505052146 57 29 1.0 1.0 0.05 0.01 0.01 82 1005.6
20260505051643 58 337 1.0 2.0 0.05 0.01 0.01 81 1005.5
20260505051142 60 209 0.0 2.0 0.00 0.00 0.00 79 1005.4
20260505050639 62 235 1.0 1.0 0.00 0.00 0.00 73 1005.5
20260505050137 66 222 1.0 1.0 0.00 0.00 0.00 64 1005.3
20260505041607 72 214 0.0 0.0 0.00 0.00 0.00 65 1004.2
20260505041104 72 311 0.0 0.0 0.00 0.00 0.00 65 1004.4
20260505040601 72 206 0.0 0.0 0.00 0.00 0.00 64 1004.2
20260505040058 73 211 0.0 1.0 0.00 0.00 0.00 64 1003.9
20260505035554 73 224 0.0 1.0 0.00 0.00 0.00 64 1003.7
20260505035051 73 210 0.0 3.0 0.00 0.00 0.00 64 1004.0
20260505034548 73 214 0.0 2.0 0.00 0.00 0.00 63 1004.0
20260505034044 73 170 1.0 1.0 0.00 0.00 0.00 62 1003.9
20260505033541 73 203 0.0 0.0 0.00 0.00 0.00 62 1004.1
20260505033040 73 198 0.0 2.0 0.00 0.00 0.00 61 1004.0
20260505032537 73 208 0.0 0.0 0.00 0.00 0.00 61 1003.9
20260505032033 73 245 0.0 2.0 0.00 0.00 0.00 60 1003.8
20260505031531 73 262 0.0 1.0 0.00 0.00 0.00 60 1003.8
20260505031027 73 192 1.0 1.0 0.00 0.00 0.00 60 1003.7
20260505030524 73 211 0.0 0.0 0.00 0.00 0.00 59 1003.5
20260505030020 72 198 0.0 1.0 0.00 0.00 0.00 59 1003.5
20260505025516 71 202 0.0 1.0 0.00 0.00 0.00 58 1003.5
20260505025016 71 212 0.0 0.0 0.00 0.00 0.00 58 1003.6
20260505024512 71 218 0.0 0.0 0.00 0.00 0.00 58 1003.3
20260505024009 71 231 0.0 0.0 0.00 0.00 0.00 58 1003.2
20260505023506 71 228 0.0 0.0 0.00 0.00 0.00 57 1003.2
20260505023003 72 227 0.0 0.0 0.00 0.00 0.00 57 1003.2
20260505022501 72 228 0.0 0.0 0.00 0.00 0.00 57 1003.3
20260505021958 72 231 0.0 0.0 0.00 0.00 0.00 56 1003.1
20260505021454 72 214 0.0 0.0 0.00 0.00 0.00 56 1002.9
20260505020950 72 219 0.0 0.0 0.00 0.00 0.00 56 1002.9
20260505020445 72 223 0.0 0.0 0.00 0.00 0.00 56 1002.8
20260505015942 73 223 0.0 0.0 0.00 0.00 0.00 55 1002.7
20260505015440 73 225 0.0 0.0 0.00 0.00 0.00 54 1002.8
20260505014937 73 224 0.0 0.0 0.00 0.00 0.00 55 1002.5
20260505014433 74 222 0.0 0.0 0.00 0.00 0.00 54 1002.4
20260505013931 74 218 0.0 0.0 0.00 0.00 0.00 54 1002.6
20260505013428 74 218 0.0 1.0 0.00 0.00 0.00 53 1002.4
20260505012925 75 193 0.0 1.0 0.00 0.00 0.00 53 1002.5
20260505012423 75 226 0.0 0.0 0.00 0.00 0.00 52 1002.4
20260505011919 75 210 0.0 0.0 0.00 0.00 0.00 52 1002.1
20260505011416 76 198 0.0 0.0 0.00 0.00 0.00 51 1002.4
20260505010913 76 217 0.0 0.0 0.00 0.00 0.00 50 1002.2
20260505010408 77 223 0.0 0.0 0.00 0.00 0.00 49 1002.0
20260505005904 77 220 0.0 0.0 0.00 0.00 0.00 48 1002.0
20260505005401 77 217 0.0 0.0 0.00 0.00 0.00 48 1002.0
20260505004859 78 220 0.0 0.0 0.00 0.00 0.00 47 1001.9
20260505004355 78 220 0.0 0.0 0.00 0.00 0.00 47 1001.9
20260505003852 79 218 0.0 0.0 0.00 0.00 0.00 47 1001.9
20260505003350 79 228 0.0 0.0 0.00 0.00 0.00 46 1001.9
20260505002845 79 214 0.0 0.0 0.00 0.00 0.00 45 1001.8
20260505002342 79 243 0.0 0.0 0.00 0.00 0.00 45 1001.7
20260505001841 79 194 0.0 0.0 0.00 0.00 0.00 45 1001.7
20260505001338 79 265 0.0 0.0 0.00 0.00 0.00 45 1001.8
20260505000835 79 234 0.0 0.0 0.00 0.00 0.00 45 1001.9
20260505000333 79 230 0.0 0.0 0.00 0.00 0.00 44 1002.0
20260504235829 80 244 0.0 0.0 0.00 0.00 0.00 44 1001.6
20260504235326 80 189 0.0 1.0 0.00 0.00 0.00 44 1001.9
20260504234823 80 216 0.0 1.0 0.00 0.00 0.00 43 1001.9
20260504234320 80 194 0.0 0.0 0.00 0.00 0.00 43 1001.9
20260504233816 80 195 0.0 0.0 0.00 0.00 0.00 43 1001.8
20260504233312 80 159 2.0 2.0 0.00 0.00 0.00 41 1002.0
20260504232809 80 187 0.0 1.0 0.00 0.00 0.00 41 1001.8
20260504232307 80 267 0.0 1.0 0.00 0.00 0.00 42 1002.0
20260504231803 81 215 1.0 1.0 0.00 0.00 0.00 41 1001.9
20260504231300 81 225 0.0 2.0 0.00 0.00 0.00 41 1001.8
20260504230756 81 191 0.0 2.0 0.00 0.00 0.00 41 1001.8
20260504230254 81 168 0.0 1.0 0.00 0.00 0.00 41 1001.8
20260504225753 82 193 0.0 1.0 0.00 0.00 0.00 40 1001.8
20260504225248 81 285 1.0 1.0 0.00 0.00 0.00 40 1001.9
20260504224746 81 229 0.0 0.0 0.00 0.00 0.00 40 1002.0
20260504224243 81 358 0.0 1.0 0.00 0.00 0.00 39 1002.0
20260504223739 81 188 1.0 2.0 0.00 0.00 0.00 40 1002.0
20260504223235 81 211 0.0 1.0 0.00 0.00 0.00 41 1001.7
20260504222732 80 216 0.0 1.0 0.00 0.00 0.00 41 1002.0
20260504222229 80 235 0.0 1.0 0.00 0.00 0.00 42 1001.9
20260504221726 80 180 1.0 3.0 0.00 0.00 0.00 42 1002.1
20260504221223 80 183 1.0 2.0 0.00 0.00 0.00 41 1002.0
20260504220720 80 251 0.0 2.0 0.00 0.00 0.00 41 1002.1
20260504220217 80 43 1.0 2.0 0.00 0.00 0.00 42 1002.1
20260504215714 80 289 1.0 2.0 0.00 0.00 0.00 43 1002.0
20260504215211 80 269 0.0 1.0 0.00 0.00 0.00 42 1002.3
20260504214707 81 158 0.0 1.0 0.00 0.00 0.00 43 1002.3
20260504214203 81 199 0.0 2.0 0.00 0.00 0.00 43 1002.1
20260504213700 81 251 0.0 1.0 0.00 0.00 0.00 43 1002.5
20260504213157 81 205 1.0 2.0 0.00 0.00 0.00 43 1002.1
20260504212653 81 282 1.0 2.0 0.00 0.00 0.00 42 1002.4
20260504212150 81 242 1.0 2.0 0.00 0.00 0.00 42 1002.4
20260504211647 82 244 2.0 3.0 0.00 0.00 0.00 41 1002.4
20260504211144 82 326 2.0 4.0 0.00 0.00 0.00 40 1002.2
20260504210642 83 5 2.0 3.0 0.00 0.00 0.00 40 1002.3
20260504210138 83 152 2.0 4.0 0.00 0.00 0.00 39 1002.3
20260504205635 84 236 1.0 2.0 0.00 0.00 0.00 39 1002.4
20260504205132 84 226 0.0 1.0 0.00 0.00 0.00 39 1002.3
20260504204631 84 192 2.0 3.0 0.00 0.00 0.00 38 1002.4
20260504204130 84 290 1.0 1.0 0.00 0.00 0.00 39 1002.5
20260504203628 85 213 1.0 2.0 0.00 0.00 0.00 39 1002.5
20260504203126 84 160 0.0 1.0 0.00 0.00 0.00 41 1002.6
20260504202625 85 36 1.0 3.0 0.00 0.00 0.00 40 1002.5
20260504202123 84 170 1.0 3.0 0.00 0.00 0.00 38 1002.5
20260504201619 84 268 1.0 3.0 0.00 0.00 0.00 39 1002.4
20260504201117 85 177 2.0 4.0 0.00 0.00 0.00 40 1002.6
20260504200614 84 198 0.0 2.0 0.00 0.00 0.00 40 1002.6
20260504200110 84 220 3.0 4.0 0.00 0.00 0.00 39 1002.7
20260504195607 84 201 1.0 2.0 0.00 0.00 0.00 39 1002.6
20260504195103 84 228 4.0 7.0 0.00 0.00 0.00 37 1002.7
20260504194600 84 295 2.0 3.0 0.00 0.00 0.00 38 1002.8
20260504194055 84 228 1.0 2.0 0.00 0.00 0.00 37 1002.7
20260504193552 84 223 2.0 3.0 0.00 0.00 0.00 39 1002.8
20260504193051 83 312 1.0 4.0 0.00 0.00 0.00 39 1002.7
20260504192549 84 197 0.0 2.0 0.00 0.00 0.00 39 1002.8
20260504192046 84 254 0.0 2.0 0.00 0.00 0.00 38 1002.9
20260504191544 83 214 1.0 2.0 0.00 0.00 0.00 40 1002.8
20260504191040 83 281 1.0 3.0 0.00 0.00 0.00 38 1002.9
20260504190537 83 237 1.0 3.0 0.00 0.00 0.00 38 1003.0
20260504190032 83 224 2.0 2.0 0.00 0.00 0.00 39 1003.0
20260504185530 82 160 3.0 4.0 0.00 0.00 0.00 39 1003.0
20260504185026 82 238 1.0 4.0 0.00 0.00 0.00 40 1003.3
20260504184521 82 2 0.0 3.0 0.00 0.00 0.00 40 1002.9
20260504184017 81 246 1.0 2.0 0.00 0.00 0.00 41 1002.9
20260504183515 81 197 1.0 4.0 0.00 0.00 0.00 39 1003.1
20260504183013 81 136 0.0 4.0 0.00 0.00 0.00 40 1003.1
20260504182509 81 186 3.0 4.0 0.00 0.00 0.00 39 1003.2
20260504182007 81 242 1.0 2.0 0.00 0.00 0.00 41 1003.2
20260504181503 80 262 1.0 2.0 0.00 0.00 0.00 41 1003.2
20260504181002 80 70 1.0 4.0 0.00 0.00 0.00 40 1003.5
20260504180501 80 286 1.0 3.0 0.00 0.00 0.00 41 1003.3
20260504175959 80 323 2.0 2.0 0.00 0.00 0.00 41 1003.5
20260504175455 80 280 4.0 7.0 0.00 0.00 0.00 42 1003.5
20260504174953 80 197 1.0 2.0 0.00 0.00 0.00 39 1003.5
20260504174450 80 170 0.0 1.0 0.00 0.00 0.00 41 1003.6
20260504173947 79 39 0.0 1.0 0.00 0.00 0.00 41 1003.5
20260504173443 79 259 1.0 2.0 0.00 0.00 0.00 41 1003.6
20260504172942 78 196 1.0 4.0 0.00 0.00 0.00 45 1003.6
20260504172437 78 195 1.0 1.0 0.00 0.00 0.00 46 1003.9
20260504171934 79 236 2.0 4.0 0.00 0.00 0.00 44 1003.9
20260504171431 78 141 1.0 2.0 0.00 0.00 0.00 44 1003.8
20260504170928 78 258 2.0 3.0 0.00 0.00 0.00 43 1004.0
20260504170424 78 253 0.0 1.0 0.00 0.00 0.00 43 1003.8
20260504160343 74 317 2.0 3.0 0.00 0.00 0.00 45 1003.9
20260504150808 71 275 1.0 4.0 0.00 0.00 0.00 49 1004.1
20260504150304 70 322 2.0 6.0 0.00 0.00 0.00 50 1004.2
20260504141235 67 254 1.0 2.0 0.00 0.00 0.00 53 1004.3
20260504140731 67 212 0.0 2.0 0.00 0.00 0.00 53 1004.5
20260504140227 67 39 1.0 4.0 0.00 0.00 0.00 53 1004.3
20260504130655 67 316 1.0 1.0 0.00 0.00 0.00 53 1004.0
20260504130151 66 356 0.0 3.0 0.00 0.00 0.00 52 1004.0
20260504120115 63 219 0.0 1.0 0.00 0.00 0.00 55 1004.3